Location: Hurecourt
(47.9030°N, 6.0653°E)
Time: 07:28:32
(UTC+00:00)

IDEFIX/ARIANE 42P - Pass Details

Date: 14 July 2020
Orbit: 784 x 804 km, 98.4° (Epoch: 14 August)

Event Time Altitude Azimuth Distance (km) Brightness Sun altitude
Rises 01:53:00 0° 24° (NNE) 3,293 7.6 -14.5°
Reaches altitude 10° 01:55:45 10° 38° (NE) 2,357 6.5 -14.2°
Maximum altitude 02:00:00 25° 93° (E) 1,546 4.4 -13.9°
Drops below altitude 10° 02:04:13 10° 148° (SSE) 2,338 4.8 -13.5°
Enters shadow 02:06:34 - 160° (SSE) 3,140 5.3 -13.3°
